Terug naar catalogus

LEMUR-2 KATIE

ActiefWetenschapSSO
NORAD 67387·PAYLOAD·🇺🇸 United States

Gelanceerd Jan 11, 2026 vanaf Vandenberg Space Force Base

Loading…

Volgende Passages (komende 24 uur)

TLE

VersSource: Space-Track

Epoch: Sep 14, 2026, 10:47 UTC

1 67387U 26004AA  26257.44994272  .00003202  00000-0  33227-3 0  9993
2 67387  97.8093 255.4136 0003850 133.5304 226.6234 14.90666114 36608

Volg LEMUR-2 KATIE in realtime met AllMySat

Download on the App Store